ASTRA 4A (SIRIUS 4) 1 32299U 07057A 21065.77407000 .00000016 00000-0 00000+0 0 9999 2 32299 0.0081 222.4959 0002409 126.5173 99.1443 1.00270644 48623 BREEZE-M R/B 1 32301U 07057C 21065.47203395 -.00000046 00000-0 00000-0 0 9996 2 32301 15.7934 235.9598 5181465 265.4896 21.4677 1.90167621 92383